[[{"header":{"parameterUnit":"m.s-1","parameterCategory":1,"la1":30.2991,"la2":30.254,"lo1":-89.0895,"lo2":-89.0444,"dy":0.0017,"dx":0.0017,"nx":28,"ny":28,"refTime":"2025-07-27T09:00:00:Z","depth":0,"parameterNumber":2,"parameterNumberName":"U-component_of_WINDS"},"data":[0,0,0,0,0,0,0,0,0,0,0,0,0,0,0,0,0,0,0,0,0,0,0,0,0,0,0,0,0,0,0,0,0,0,0,0,0,0,0,0,0,0,0,0,0,0,0,0,0,0,0,0,0,0,0,0,0,0,2.4819,2.482,0,2.4842,2.4842,2.4842,2.4743,2.474,2.4737,2.4734,2.4761,2.4764,2.4767,0,0,0,0,0,0,0,0,0,0,0,0,0,2.4694,2.4697,2.4819,2.482,2.482,2.4842,2.4842,2.4842,2.4743,2.474,2.4736,2.4733,2.476,2.4764,2.4768,0,0,0,0,0,0,0,0,0,0,0,0,0,2.4736,2.4698,2.4819,2.4773,2.4769,2.4842,2.4842,2.4843,2.4744,2.474,2.4735,2.4731,2.4758,2.4763,2.4768,2.4888,0,0,2.4784,2.4786,0,0,0,0,0,0,0,0,2.4734,2.4741,2.478,2.4776,2.4772,2.4785,2.4808,2.4858,2.4745,2.4754,2.4734,2.4729,2.4773,2.4776,2.479,2.4889,2.489,2.4784,2.4788,2.479,2.4791,0,0,0,0,0,0,0,2.4731,2.4739,2.4828,2.478,2.4776,2.4753,2.4754,2.4817,2.4788,2.4753,2.4746,2.4749,2.477,2.4786,2.479,2.489,2.4784,2.4789,2.4792,2.4794,2.5091,2.5096,0,0,0,0,0,0,2.4734,2.4738,2.4828,2.4829,2.4742,2.4758,2.476,2.4785,2.4787,2.4782,2.4753,2.4745,2.4779,2.4784,2.4791,2.4933,2.479,2.4795,2.4797,2.5086,2.5092,2.5097,0,0,0,0,0,0,2.4732,2.4743,2.4827,2.4781,2.479,2.4765,2.4795,2.4788,2.4804,2.4787,2.4781,2.4774,2.4776,2.4783,2.4865,2.4932,2.4797,2.4802,2.5081,2.5088,2.5095,2.5216,0,0,0,0,0,0,2.4728,2.4743,2.4787,2.4783,2.4793,2.49,2.4799,2.4792,2.4813,2.4802,2.4805,2.4802,2.4773,2.4858,2.487,2.4937,2.4806,2.5074,2.5084,2.5092,2.5206,2.5227,2.5244,0,0,0,0,0,2.4724,2.482,2.4789,2.4801,2.4847,2.4903,2.4909,2.4873,2.4818,2.4863,2.4853,2.4802,2.4922,2.4867,2.488,2.4949,2.507,2.5081,2.5092,2.5198,2.5223,2.5244,0,0,0,0,0,0,2.4833,2.4819,2.4784,2.4882,2.4895,2.4886,2.4942,2.49,2.493,2.4919,2.4873,2.4875,2.4965,2.4964,2.4903,2.5066,2.4987,2.5001,2.5063,2.5087,2.5106,2.5105,2.481,0,0,0,0,0,2.4868,2.4913,2.4899,2.4986,2.4994,2.4968,2.499,2.4961,2.4973,2.4979,2.4974,2.4988,2.503,2.5058,2.5095,2.5205,2.5206,2.526,2.5279,2.5294,2.5308,2.5369,2.5394,2.5133,2.5133,2.5132,0,0,2.4941,2.4939,2.4971,2.5008,2.5014,2.5065,2.4973,2.5029,2.5066,2.4987,2.5064,2.5062,2.5075,2.5172,2.5215,2.5175,2.538,2.5308,2.5321,2.5326,2.5383,2.5408,2.543,2.514,2.5139,2.5138,0,0,2.51,2.5102,2.5176,2.5185,2.5196,2.5178,2.5196,2.5195,2.519,2.5266,2.5209,2.5253,2.5324,2.5337,2.5353,2.5519,2.5475,2.5532,2.5633,2.5694,2.5714,2.5732,2.5794,2.5817,2.5545,2.5546,2.5546,0,2.5191,2.5262,2.522,2.5281,2.53,2.5231,2.5307,2.5317,2.5341,2.5356,2.5311,2.54,2.5404,2.5505,2.5546,2.556,2.5581,2.5533,2.5714,2.5732,2.5748,2.5807,2.583,2.5553,2.5552,2.5551,2.555,0,2.5374,2.5425,2.5484,2.5508,2.5533,2.5601,2.5571,2.5603,2.5572,2.5559,2.5639,2.5641,2.5679,2.57,2.567,2.5798,2.5773,2.5722,2.5642,2.5781,2.5836,2.5858,2.5563,2.556,2.5558,2.5556,0,0,2.5603,2.5603,2.5626,2.5637,2.5645,2.5684,2.575,2.5786,2.5815,2.5833,2.5889,2.5952,2.5905,2.5924,2.5895,2.5948,2.6083,2.589,2.589,2.5928,2.6227,2.6267,2.6294,2.6052,2.6056,2.606,2.6227,0,2.5761,2.5873,2.5838,2.5952,2.6,2.5935,2.5993,2.6005,2.5995,2.6036,2.6025,2.6071,2.6004,2.6015,2.6065,2.6056,2.6143,2.6043,2.6107,2.611,2.6108,2.6322,2.6364,2.6521,2.6247,2.6251,2.6253,0,2.5961,2.5988,2.6106,2.6108,2.6127,2.618,2.6211,2.625,2.6263,2.6252,2.6274,2.6234,2.6301,2.622,2.6313,2.6246,2.627,2.627,2.6275,2.6282,2.6192,2.6337,2.657,2.6595,2.6286,2.6283,2.6281,0,2.6119,2.6185,2.6265,2.6276,2.6279,2.6318,2.6322,2.633,2.6355,2.6383,2.6399,2.6434,2.6455,2.6484,2.6456,2.6399,2.6555,2.647,2.655,2.6552,2.6588,2.6586,2.6832,2.6599,2.6599,2.6599,2.6598,0,2.6301,2.6377,2.6337,2.6386,2.647,2.643,2.6514,2.651,2.6519,2.6569,2.6514,2.6562,2.6521,2.6566,2.6545,2.6627,2.6636,2.6631,2.6625,2.6637,2.6638,2.6654,2.6643,2.6605,2.6603,2.6602,2.6601,0,2.6493,2.6469,2.6552,2.6549,2.655,2.6612,2.661,2.6657,2.6643,2.6706,2.6719,2.6698,2.6748,2.6723,2.6775,2.6761,2.6868,2.6846,2.6864,2.6859,2.6941,2.6935,2.7207,2.7242,2.6985,2.6987,2.6989,0,2.6612,2.6669,2.6672,2.6701,2.6708,2.6755,2.678,2.6743,2.6771,2.6792,2.6837,2.6882,2.6917,2.7,2.6991,2.7031,2.7011,2.7104,2.7017,2.7029,2.7016,2.7014,2.7021,2.7122,2.7125,2.7127,2.7129,0,2.6827,2.6813,2.685,2.6885,2.6916,2.6942,2.6963,2.699,2.6953,2.6988,2.7039,2.7065,2.7119,2.7166,2.7201,2.7206,2.7164,2.7156,2.7178,2.7192,2.7201,2.7201,2.6914,2.7151,2.7149,2.7147,2.7146,2.7145,2.6988,2.7037,2.7047,2.7092,2.7104,2.7125,2.717,2.7162,2.7203,2.7243,2.7218,2.7278,2.7292,2.7335,2.7346,2.7394,2.7357,2.7387,2.7395,2.7404,2.7417,2.7192,2.74,2.7399,2.7398,2.7398,2.7397,0,2.7203,2.7206,2.7247,2.7279,2.7315,2.7269,2.7291,2.7325,2.7378,2.7394,2.7429,2.7488,2.7534,2.7528,2.757,2.761,2.7591,2.7622,2.762,2.7623,2.7445,2.7424,2.7637,2.7637,2.7637,2.7637,2.7636,2.7636,2.7319,2.74,2.7387,2.7474,2.7477,2.7535,2.7551,2.7572,2.7584,2.7653,2.769,2.7686,2.7694,2.7737,2.7778,2.7775,2.7794,2.7833,2.7824,2.7659,2.7635,2.7613,2.7593,2.7837,2.7837,2.7998,2.7999,2.8]},{"header":{"parameterUnit":"m.s-1","parameterCategory":1,"la1":30.2991,"la2":30.254,"lo1":-89.0895,"lo2":-89.0444,"dy":0.0017,"dx":0.0017,"nx":28,"ny":28,"refTime":"2025-07-27T09:00:00:Z","depth":0,"parameterNumber":3,"parameterNumberName":"V-component_of_WINDS"},"data":[0,0,0,0,0,0,0,0,0,0,0,0,0,0,0,0,0,0,0,0,0,0,0,0,0,0,0,0,0,0,0,0,0,0,0,0,0,0,0,0,0,0,0,0,0,0,0,0,0,0,0,0,0,0,0,0,0,0,-0.7779,-0.7779,0,-0.7795,-0.7795,-0.7795,-0.7823,-0.7823,-0.7824,-0.7824,-0.784,-0.784,-0.7839,0,0,0,0,0,0,0,0,0,0,0,0,0,-0.7772,-0.7772,-0.7779,-0.7779,-0.7779,-0.7795,-0.7795,-0.7795,-0.7822,-0.7823,-0.7824,-0.7824,-0.784,-0.784,-0.7839,0,0,0,0,0,0,0,0,0,0,0,0,0,-0.778,-0.7772,-0.7779,-0.7795,-0.7796,-0.7795,-0.7795,-0.7795,-0.7822,-0.7823,-0.7824,-0.7825,-0.784,-0.784,-0.7839,-0.7823,0,0,-0.7839,-0.7839,0,0,0,0,0,0,0,0,-0.778,-0.778,-0.7792,-0.7794,-0.7795,-0.7807,-0.7798,-0.7804,-0.7822,-0.7812,-0.7824,-0.7825,-0.7828,-0.7829,-0.783,-0.7824,-0.7825,-0.7839,-0.7839,-0.7839,-0.7839,0,0,0,0,0,0,0,-0.7779,-0.778,-0.7785,-0.7792,-0.7794,-0.7801,-0.7803,-0.7799,-0.7816,-0.7813,-0.7815,-0.7817,-0.7829,-0.783,-0.7831,-0.7825,-0.7839,-0.7839,-0.7839,-0.7839,-0.7806,-0.7805,0,0,0,0,0,0,-0.7776,-0.7779,-0.7785,-0.7786,-0.7789,-0.78,-0.7803,-0.7803,-0.7816,-0.7819,-0.7816,-0.7818,-0.783,-0.7831,-0.7832,-0.7813,-0.7839,-0.7839,-0.7839,-0.7807,-0.7806,-0.7805,0,0,0,0,0,0,-0.7776,-0.7776,-0.7784,-0.7783,-0.7784,-0.78,-0.78,-0.7803,-0.7804,-0.7818,-0.7821,-0.7814,-0.7831,-0.7832,-0.7825,-0.7814,-0.7839,-0.7839,-0.7808,-0.7806,-0.7805,-0.7776,0,0,0,0,0,0,-0.7776,-0.7776,-0.777,-0.7783,-0.7784,-0.7777,-0.7799,-0.7802,-0.7804,-0.7806,-0.7817,-0.782,-0.7832,-0.7825,-0.7825,-0.7814,-0.7839,-0.7809,-0.7807,-0.7806,-0.7778,-0.7774,-0.7771,0,0,0,0,0,-0.7775,-0.7761,-0.777,-0.777,-0.7777,-0.7776,-0.7777,-0.7792,-0.7803,-0.7797,-0.7806,-0.7819,-0.7815,-0.7824,-0.7824,-0.7813,-0.7809,-0.7807,-0.7806,-0.778,-0.7775,-0.7771,0,0,0,0,0,0,-0.7746,-0.7763,-0.7773,-0.7762,-0.7768,-0.7781,-0.7774,-0.7786,-0.7788,-0.779,-0.7808,-0.781,-0.7801,-0.7807,-0.7816,-0.7798,-0.7815,-0.7813,-0.7795,-0.779,-0.7786,-0.7785,-0.7839,0,0,0,0,0,-0.7739,-0.7737,-0.7752,-0.7741,-0.7744,-0.7758,-0.7758,-0.7769,-0.7775,-0.7778,-0.7786,-0.7792,-0.7792,-0.7792,-0.7792,-0.7779,-0.7782,-0.7772,-0.7768,-0.7765,-0.7763,-0.7756,-0.7752,-0.7799,-0.7799,-0.7799,0,0,-0.7723,-0.7732,-0.773,-0.7736,-0.7741,-0.7739,-0.776,-0.7756,-0.7755,-0.7777,-0.7771,-0.7778,-0.7785,-0.7775,-0.7771,-0.778,-0.7751,-0.7763,-0.776,-0.776,-0.7754,-0.7749,-0.7745,-0.7797,-0.7798,-0.7798,0,0,-0.7694,-0.77,-0.7692,-0.7697,-0.7706,-0.7716,-0.7714,-0.7725,-0.7731,-0.7725,-0.7742,-0.774,-0.774,-0.7744,-0.7747,-0.7719,-0.7731,-0.7719,-0.7699,-0.7692,-0.7688,-0.7685,-0.7675,-0.7671,-0.7717,-0.7717,-0.7717,0,-0.7673,-0.767,-0.7686,-0.7682,-0.7684,-0.7704,-0.7696,-0.77,-0.7708,-0.7709,-0.7718,-0.7719,-0.7725,-0.7716,-0.771,-0.7711,-0.7709,-0.7717,-0.7688,-0.7685,-0.7682,-0.7672,-0.7668,-0.7715,-0.7716,-0.7716,-0.7716,0,-0.7644,-0.7642,-0.7634,-0.7642,-0.7643,-0.7636,-0.7651,-0.7651,-0.7661,-0.767,-0.7664,-0.7673,-0.7676,-0.7675,-0.7685,-0.7667,-0.7672,-0.7685,-0.7701,-0.7675,-0.7667,-0.7663,-0.7713,-0.7714,-0.7714,-0.7714,0,0,-0.7596,-0.7612,-0.7609,-0.7613,-0.7624,-0.7622,-0.7617,-0.762,-0.7619,-0.7624,-0.762,-0.7619,-0.7631,-0.7633,-0.7644,-0.7639,-0.7616,-0.7652,-0.7652,-0.7644,-0.7596,-0.7586,-0.7582,-0.7624,-0.7624,-0.7623,-0.7595,0,-0.7567,-0.7559,-0.7574,-0.7562,-0.756,-0.758,-0.7575,-0.7581,-0.759,-0.7589,-0.7599,-0.7598,-0.7613,-0.7615,-0.761,-0.7619,-0.7606,-0.7622,-0.762,-0.762,-0.7616,-0.7577,-0.7567,-0.754,-0.7592,-0.7592,-0.7591,0,-0.7533,-0.7537,-0.7524,-0.7536,-0.7536,-0.7531,-0.7536,-0.7535,-0.7542,-0.7549,-0.7552,-0.7565,-0.7561,-0.7577,-0.7571,-0.7581,-0.7582,-0.7586,-0.7586,-0.7585,-0.7603,-0.7575,-0.7532,-0.7528,-0.7586,-0.7586,-0.7587,0,-0.7498,-0.75,-0.7493,-0.7495,-0.7509,-0.7505,-0.7511,-0.7519,-0.752,-0.7524,-0.7525,-0.7528,-0.7529,-0.7531,-0.7545,-0.7556,-0.7537,-0.7555,-0.7542,-0.7541,-0.7536,-0.7536,-0.7491,-0.7538,-0.7538,-0.7538,-0.7538,0,-0.7464,-0.7456,-0.7477,-0.7473,-0.7464,-0.7481,-0.7472,-0.748,-0.7487,-0.7484,-0.7502,-0.7499,-0.7518,-0.7517,-0.7528,-0.7521,-0.7521,-0.7526,-0.7529,-0.7524,-0.7523,-0.7524,-0.7526,-0.7537,-0.7537,-0.7537,-0.7537,0,-0.7423,-0.7437,-0.7431,-0.7445,-0.7448,-0.7441,-0.7453,-0.7449,-0.7459,-0.7455,-0.7455,-0.7471,-0.7471,-0.7485,-0.7488,-0.7495,-0.7483,-0.749,-0.748,-0.7482,-0.7468,-0.7469,-0.7422,-0.7416,-0.7466,-0.7466,-0.7465,0,-0.74,-0.7394,-0.7408,-0.7407,-0.7412,-0.7411,-0.7412,-0.7429,-0.743,-0.7438,-0.7433,-0.7435,-0.7437,-0.7436,-0.7447,-0.7449,-0.7455,-0.7439,-0.7456,-0.7451,-0.7454,-0.7454,-0.7453,-0.7435,-0.7434,-0.7434,-0.7433,0,-0.7358,-0.7365,-0.7367,-0.737,-0.7371,-0.7375,-0.7379,-0.7378,-0.7396,-0.7396,-0.7396,-0.7398,-0.7401,-0.7402,-0.7406,-0.7412,-0.7425,-0.7428,-0.7425,-0.7419,-0.7414,-0.7416,-0.747,-0.7429,-0.7429,-0.7429,-0.743,-0.743,-0.7325,-0.7321,-0.7329,-0.733,-0.7335,-0.7339,-0.7337,-0.7346,-0.7347,-0.7351,-0.7361,-0.7359,-0.7367,-0.7375,-0.7379,-0.7378,-0.7386,-0.7382,-0.7381,-0.7379,-0.7376,-0.7415,-0.7379,-0.7379,-0.7379,-0.738,-0.738,0,-0.7283,-0.729,-0.729,-0.7296,-0.7297,-0.731,-0.7316,-0.7315,-0.7314,-0.732,-0.7322,-0.7322,-0.7324,-0.7335,-0.7338,-0.7335,-0.7341,-0.7335,-0.7335,-0.7336,-0.7369,-0.7371,-0.733,-0.733,-0.733,-0.733,-0.733,-0.733,-0.7261,-0.7254,-0.7263,-0.7259,-0.7266,-0.7264,-0.7267,-0.727,-0.7276,-0.7275,-0.7276,-0.7284,-0.7292,-0.7296,-0.7298,-0.7301,-0.7301,-0.7292,-0.7298,-0.7329,-0.7333,-0.7338,-0.734,-0.7292,-0.7292,-0.7264,-0.7264,-0.7264]}]]